| time (UTC) | temp C | wind direction | speed KPH | gust KPH | rain 1hr cm | rain 24hr cm | rain mn cm | humidity % | barometer mb |
| 20260903141524 | 28 | 194 | 16.1 | 30.6 | 0.00 | 0.00 | 0.00 | 77 | 1014.4 |
| 20260903141003 | 28 | 185 | 16.1 | 37.0 | 0.00 | 0.00 | 0.00 | 78 | 1014.3 |
| 20260903140503 | 28 | 180 | 12.9 | 37.0 | 0.00 | 0.00 | 0.00 | 79 | 1014.3 |
| 20260903140003 | 28 | 185 | 12.9 | 25.7 | 0.00 | 0.00 | 0.00 | 80 | 1014.3 |
| 20260903135503 | 28 | 184 | 16.1 | 29.0 | 0.00 | 0.00 | 0.00 | 80 | 1014.3 |
| 20260903135003 | 28 | 180 | 16.1 | 29.0 | 0.00 | 0.00 | 0.00 | 81 | 1014.3 |
| 20260903134503 | 28 | 182 | 16.1 | 29.0 | 0.00 | 0.00 | 0.00 | 81 | 1014.3 |
| 20260903134003 | 28 | 181 | 16.1 | 30.6 | 0.00 | 0.00 | 0.00 | 82 | 1014.3 |
| 20260903133503 | 27 | 178 | 12.9 | 30.6 | 0.00 | 0.00 | 0.00 | 82 | 1014.4 |
| 20260903133024 | 27 | 185 | 12.9 | 25.7 | 0.00 | 0.00 | 0.00 | 83 | 1014.4 |
| 20260903132503 | 27 | 185 | 11.3 | 25.7 | 0.00 | 0.00 | 0.00 | 83 | 1014.4 |
| 20260903132003 | 27 | 177 | 11.3 | 25.7 | 0.00 | 0.00 | 0.00 | 83 | 1014.4 |
| 20260903131503 | 27 | 175 | 12.9 | 25.7 | 0.00 | 0.00 | 0.00 | 84 | 1014.4 |
| 20260903131003 | 27 | 175 | 12.9 | 25.7 | 0.00 | 0.00 | 0.00 | 84 | 1014.4 |
| 20260903130524 | 27 | 173 | 12.9 | 27.4 | 0.00 | 0.00 | 0.00 | 84 | 1014.3 |
| 20260903130003 | 27 | 171 | 12.9 | 29.0 | 0.00 | 0.00 | 0.00 | 84 | 1014.4 |
| 20260903125503 | 27 | 176 | 12.9 | 29.0 | 0.00 | 0.00 | 0.00 | 84 | 1014.3 |
| 20260903125003 | 27 | 179 | 12.9 | 22.5 | 0.00 | 0.00 | 0.00 | 84 | 1014.2 |
| 20260903124503 | 27 | 178 | 11.3 | 22.5 | 0.00 | 0.00 | 0.00 | 84 | 1014.2 |
| 20260903124003 | 27 | 180 | 11.3 | 22.5 | 0.00 | 0.00 | 0.00 | 85 | 1014.2 |
| 20260903123504 | 27 | 179 | 11.3 | 22.5 | 0.00 | 0.00 | 0.00 | 85 | 1014.1 |
| 20260903123004 | 27 | 178 | 9.7 | 22.5 | 0.00 | 0.00 | 0.00 | 85 | 1014.1 |
| 20260903122504 | 27 | 182 | 11.3 | 20.9 | 0.00 | 0.00 | 0.00 | 85 | 1014.1 |
| 20260903122004 | 27 | 180 | 11.3 | 20.9 | 0.00 | 0.00 | 0.00 | 85 | 1014.0 |
| 20260903121504 | 27 | 176 | 9.7 | 20.9 | 0.00 | 0.00 | 0.00 | 85 | 1013.9 |
| 20260903121004 | 27 | 175 | 9.7 | 19.3 | 0.00 | 0.00 | 0.00 | 85 | 1013.9 |
| 20260903120504 | 27 | 177 | 11.3 | 19.3 | 0.00 | 0.00 | 0.00 | 86 | 1013.9 |
| 20260903120004 | 27 | 178 | 11.3 | 25.7 | 0.00 | 0.00 | 0.00 | 86 | 1013.8 |
| 20260903115504 | 27 | 180 | 11.3 | 25.7 | 0.00 | 0.00 | 0.00 | 86 | 1013.7 |
| 20260903115004 | 27 | 178 | 11.3 | 20.9 | 0.00 | 0.00 | 0.00 | 86 | 1013.7 |
| 20260903114504 | 27 | 174 | 9.7 | 17.7 | 0.00 | 0.00 | 0.00 | 86 | 1013.7 |
| 20260903114004 | 27 | 178 | 8.0 | 12.9 | 0.00 | 0.00 | 0.00 | 86 | 1013.7 |
| 20260903113504 | 27 | 181 | 8.0 | 16.1 | 0.00 | 0.00 | 0.00 | 87 | 1013.7 |
| 20260903113004 | 26 | 177 | 9.7 | 19.3 | 0.00 | 0.00 | 0.00 | 87 | 1013.6 |
| 20260903112504 | 26 | 173 | 11.3 | 19.3 | 0.00 | 0.00 | 0.00 | 87 | 1013.7 |
| 20260903112025 | 26 | 172 | 9.7 | 19.3 | 0.00 | 0.00 | 0.00 | 87 | 1013.7 |
| 20260903111504 | 26 | 172 | 9.7 | 19.3 | 0.00 | 0.00 | 0.00 | 87 | 1013.7 |
| 20260903111004 | 26 | 170 | 11.3 | 19.3 | 0.00 | 0.00 | 0.00 | 87 | 1013.7 |
| 20260903110504 | 26 | 171 | 11.3 | 19.3 | 0.00 | 0.00 | 0.00 | 88 | 1013.6 |
| 20260903110004 | 26 | 172 | 9.7 | 19.3 | 0.00 | 0.00 | 0.00 | 88 | 1013.6 |
| 20260903105504 | 26 | 171 | 9.7 | 19.3 | 0.00 | 0.00 | 0.00 | 88 | 1013.7 |
| 20260903105004 | 26 | 168 | 9.7 | 17.7 | 0.00 | 0.00 | 0.00 | 88 | 1013.7 |
| 20260903104504 | 26 | 169 | 9.7 | 17.7 | 0.00 | 0.00 | 0.00 | 88 | 1013.6 |
| 20260903104005 | 26 | 170 | 8.0 | 12.9 | 0.00 | 0.00 | 0.00 | 88 | 1013.6 |
| 20260903103504 | 26 | 170 | 8.0 | 17.7 | 0.00 | 0.00 | 0.00 | 88 | 1013.5 |
| 20260903103004 | 26 | 174 | 8.0 | 17.7 | 0.00 | 0.00 | 0.00 | 88 | 1013.5 |
| 20260903102504 | 26 | 174 | 8.0 | 16.1 | 0.00 | 0.00 | 0.00 | 88 | 1013.5 |
| 20260903102004 | 26 | 172 | 8.0 | 16.1 | 0.00 | 0.00 | 0.00 | 88 | 1013.6 |
| 20260903101504 | 26 | 170 | 8.0 | 16.1 | 0.00 | 0.00 | 0.00 | 88 | 1013.5 |
| 20260903101025 | 26 | 165 | 8.0 | 16.1 | 0.00 | 0.00 | 0.00 | 88 | 1013.5 |
| 20260903100504 | 26 | 166 | 8.0 | 12.9 | 0.00 | 0.00 | 0.00 | 88 | 1013.6 |
| 20260903100004 | 26 | 165 | 8.0 | 12.9 | 0.00 | 0.00 | 0.00 | 88 | 1013.6 |
| 20260903095504 | 26 | 168 | 8.0 | 16.1 | 0.00 | 0.00 | 0.00 | 87 | 1013.6 |
| 20260903095004 | 26 | 170 | 6.4 | 16.1 | 0.00 | 0.00 | 0.00 | 87 | 1013.6 |
| 20260903094525 | 26 | 166 | 8.0 | 12.9 | 0.00 | 0.00 | 0.00 | 87 | 1013.6 |
| 20260903094025 | 26 | 166 | 8.0 | 17.7 | 0.00 | 0.00 | 0.00 | 87 | 1013.7 |
| 20260903093525 | 26 | 165 | 8.0 | 17.7 | 0.00 | 0.00 | 0.00 | 87 | 1013.7 |
| 20260903093004 | 26 | 166 | 8.0 | 16.1 | 0.00 | 0.00 | 0.00 | 87 | 1013.7 |
| 20260903092504 | 26 | 170 | 8.0 | 12.9 | 0.00 | 0.00 | 0.00 | 87 | 1013.7 |
| 20260903092004 | 26 | 170 | 8.0 | 12.9 | 0.00 | 0.00 | 0.00 | 87 | 1013.8 |
| 20260903091525 | 26 | 169 | 9.7 | 17.7 | 0.00 | 0.00 | 0.00 | 87 | 1013.7 |
| 20260903091025 | 26 | 167 | 8.0 | 17.7 | 0.00 | 0.00 | 0.00 | 86 | 1013.7 |
| 20260903090504 | 26 | 166 | 8.0 | 17.7 | 0.00 | 0.00 | 0.00 | 86 | 1013.8 |
| 20260903090004 | 26 | 168 | 8.0 | 17.7 | 0.00 | 0.00 | 0.00 | 86 | 1013.8 |
| 20260903085504 | 26 | 173 | 8.0 | 16.1 | 0.00 | 0.00 | 0.00 | 86 | 1013.8 |
| 20260903085003 | 26 | 172 | 8.0 | 16.1 | 0.00 | 0.00 | 0.00 | 86 | 1013.8 |
| 20260903084504 | 27 | 167 | 8.0 | 16.1 | 0.00 | 0.00 | 0.00 | 86 | 1013.7 |
| 20260903084004 | 27 | 163 | 9.7 | 16.1 | 0.00 | 0.00 | 0.00 | 86 | 1013.7 |
| 20260903083504 | 27 | 166 | 9.7 | 19.3 | 0.00 | 0.00 | 0.00 | 85 | 1013.8 |
| 20260903083004 | 27 | 166 | 9.7 | 19.3 | 0.00 | 0.00 | 0.00 | 85 | 1013.8 |
| 20260903082504 | 27 | 168 | 8.0 | 16.1 | 0.00 | 0.00 | 0.00 | 85 | 1013.7 |
| 20260903082025 | 27 | 170 | 9.7 | 16.1 | 0.00 | 0.00 | 0.00 | 85 | 1013.8 |
| 20260903081503 | 27 | 167 | 9.7 | 19.3 | 0.00 | 0.00 | 0.00 | 85 | 1013.8 |
| 20260903081004 | 27 | 167 | 11.3 | 19.3 | 0.00 | 0.00 | 0.00 | 84 | 1013.8 |
| 20260903080525 | 27 | 167 | 9.7 | 19.3 | 0.00 | 0.00 | 0.00 | 84 | 1013.8 |
| 20260903080004 | 27 | 165 | 9.7 | 19.3 | 0.00 | 0.00 | 0.00 | 84 | 1013.8 |
| 20260903075504 | 27 | 166 | 9.7 | 19.3 | 0.00 | 0.00 | 0.00 | 84 | 1013.9 |
| 20260903075004 | 27 | 163 | 9.7 | 17.7 | 0.00 | 0.00 | 0.00 | 83 | 1014.0 |
| 20260903074504 | 27 | 158 | 9.7 | 17.7 | 0.00 | 0.00 | 0.00 | 83 | 1014.0 |
| 20260903074025 | 27 | 159 | 9.7 | 17.7 | 0.00 | 0.00 | 0.00 | 83 | 1014.0 |
| 20260903073503 | 27 | 153 | 9.7 | 19.3 | 0.00 | 0.00 | 0.00 | 83 | 1014.1 |
| 20260903073004 | 27 | 155 | 9.7 | 19.3 | 0.00 | 0.00 | 0.00 | 82 | 1014.1 |
| 20260903072504 | 27 | 156 | 9.7 | 19.3 | 0.00 | 0.00 | 0.00 | 82 | 1014.0 |
| 20260903072004 | 27 | 154 | 9.7 | 19.3 | 0.00 | 0.00 | 0.00 | 82 | 1014.1 |
| 20260903071524 | 27 | 161 | 11.3 | 19.3 | 0.00 | 0.00 | 0.00 | 81 | 1014.1 |
| 20260903071004 | 27 | 163 | 9.7 | 19.3 | 0.00 | 0.00 | 0.00 | 81 | 1014.1 |
| 20260903070524 | 27 | 160 | 9.7 | 19.3 | 0.00 | 0.00 | 0.00 | 80 | 1014.2 |
| 20260903070004 | 27 | 157 | 9.7 | 19.3 | 0.00 | 0.00 | 0.00 | 80 | 1014.2 |
| 20260903065504 | 27 | 159 | 9.7 | 19.3 | 0.00 | 0.00 | 0.00 | 79 | 1014.3 |
| 20260903065004 | 27 | 160 | 9.7 | 19.3 | 0.00 | 0.00 | 0.00 | 79 | 1014.2 |
| 20260903064504 | 28 | 154 | 9.7 | 17.7 | 0.00 | 0.00 | 0.00 | 78 | 1014.2 |
| 20260903064003 | 28 | 155 | 9.7 | 19.3 | 0.00 | 0.00 | 0.00 | 78 | 1014.2 |
| 20260903063503 | 28 | 162 | 9.7 | 19.3 | 0.00 | 0.00 | 0.00 | 77 | 1014.2 |
| 20260903063004 | 28 | 161 | 8.0 | 16.1 | 0.00 | 0.00 | 0.00 | 76 | 1014.2 |
| 20260903062504 | 28 | 157 | 8.0 | 17.7 | 0.00 | 0.00 | 0.00 | 76 | 1014.2 |
| 20260903062003 | 28 | 157 | 9.7 | 20.9 | 0.00 | 0.00 | 0.00 | 76 | 1014.2 |
| 20260903061504 | 28 | 159 | 11.3 | 20.9 | 0.00 | 0.00 | 0.00 | 75 | 1014.2 |
| 20260903061003 | 28 | 155 | 11.3 | 25.7 | 0.00 | 0.00 | 0.00 | 74 | 1014.2 |
| 20260903060503 | 28 | 150 | 11.3 | 25.7 | 0.00 | 0.00 | 0.00 | 73 | 1014.2 |
| 20260903060003 | 28 | 161 | 12.9 | 25.7 | 0.00 | 0.00 | 0.00 | 73 | 1014.2 |
| 20260903055503 | 28 | 162 | 12.9 | 25.7 | 0.00 | 0.00 | 0.00 | 72 | 1014.2 |
| 20260903055004 | 28 | 151 | 11.3 | 27.4 | 0.00 | 0.00 | 0.00 | 72 | 1014.2 |
| 20260903054504 | 28 | 155 | 12.9 | 29.0 | 0.00 | 0.00 | 0.00 | 71 | 1014.2 |
| 20260903054003 | 28 | 155 | 12.9 | 29.0 | 0.00 | 0.00 | 0.00 | 71 | 1014.2 |
| 20260903053503 | 28 | 147 | 12.9 | 27.4 | 0.00 | 0.00 | 0.00 | 70 | 1014.2 |
| 20260903053003 | 28 | 147 | 11.3 | 22.5 | 0.00 | 0.00 | 0.00 | 70 | 1014.2 |
| 20260903052525 | 28 | 138 | 9.7 | 22.5 | 0.00 | 0.00 | 0.00 | 71 | 1014.1 |
| 20260903052003 | 28 | 129 | 9.7 | 22.5 | 0.00 | 0.00 | 0.00 | 71 | 1014.2 |
| 20260903051503 | 28 | 129 | 11.3 | 22.5 | 0.00 | 0.00 | 0.00 | 71 | 1014.3 |
| 20260903051003 | 28 | 127 | 11.3 | 22.5 | 0.00 | 0.00 | 0.00 | 70 | 1014.2 |
| 20260903050504 | 29 | 126 | 11.3 | 22.5 | 0.00 | 0.00 | 0.00 | 70 | 1014.1 |
| 20260903050004 | 29 | 123 | 9.7 | 20.9 | 0.00 | 0.00 | 0.00 | 69 | 1014.1 |
| 20260903045503 | 29 | 118 | 9.7 | 20.9 | 0.00 | 0.00 | 0.00 | 69 | 1014.2 |
| 20260903045025 | 29 | 120 | 8.0 | 19.3 | 0.00 | 0.00 | 0.00 | 69 | 1014.1 |
| 20260903044503 | 29 | 121 | 11.3 | 22.5 | 0.00 | 0.00 | 0.00 | 68 | 1013.9 |
| 20260903044003 | 30 | 122 | 12.9 | 25.7 | 0.00 | 0.00 | 0.00 | 68 | 1013.8 |
| 20260903043503 | 30 | 122 | 11.3 | 25.7 | 0.00 | 0.00 | 0.00 | 67 | 1013.8 |
| 20260903043025 | 30 | 119 | 11.3 | 25.7 | 0.00 | 0.00 | 0.00 | 67 | 1013.8 |
| 20260903042503 | 30 | 115 | 11.3 | 19.3 | 0.00 | 0.00 | 0.00 | 66 | 1013.8 |
| 20260903042004 | 30 | 115 | 9.7 | 19.3 | 0.00 | 0.00 | 0.00 | 65 | 1013.8 |
| 20260903041503 | 30 | 114 | 8.0 | 19.3 | 0.00 | 0.00 | 0.00 | 64 | 1013.8 |
| 20260903041004 | 30 | 108 | 8.0 | 16.1 | 0.00 | 0.00 | 0.00 | 63 | 1013.8 |
| 20260903040503 | 30 | 110 | 8.0 | 19.3 | 0.00 | 0.00 | 0.00 | 63 | 1013.7 |
| 20260903040004 | 30 | 117 | 8.0 | 19.3 | 0.00 | 0.00 | 0.00 | 63 | 1013.7 |
| 20260903035524 | 30 | 113 | 8.0 | 19.3 | 0.00 | 0.00 | 0.00 | 62 | 1013.7 |
| 20260903035003 | 30 | 106 | 8.0 | 19.3 | 0.00 | 0.00 | 0.00 | 62 | 1013.7 |
| 20260903034503 | 30 | 107 | 8.0 | 20.9 | 0.00 | 0.00 | 0.00 | 61 | 1013.7 |
| 20260903034004 | 30 | 105 | 9.7 | 20.9 | 0.00 | 0.00 | 0.00 | 61 | 1013.7 |
| 20260903033504 | 31 | 103 | 11.3 | 29.0 | 0.00 | 0.00 | 0.00 | 61 | 1013.7 |
| 20260903033024 | 31 | 106 | 11.3 | 29.0 | 0.00 | 0.00 | 0.00 | 60 | 1013.7 |
| 20260903032504 | 31 | 111 | 11.3 | 22.5 | 0.00 | 0.00 | 0.00 | 59 | 1013.6 |
| 20260903032003 | 31 | 111 | 11.3 | 29.0 | 0.00 | 0.00 | 0.00 | 59 | 1013.6 |
| 20260903031503 | 31 | 109 | 11.3 | 29.0 | 0.00 | 0.00 | 0.00 | 58 | 1013.5 |
| 20260903031003 | 31 | 107 | 9.7 | 27.4 | 0.00 | 0.00 | 0.00 | 58 | 1013.4 |
| 20260903030503 | 31 | 102 | 6.4 | 22.5 | 0.00 | 0.00 | 0.00 | 57 | 1013.2 |
| 20260903030004 | 31 | 92 | 6.4 | 17.7 | 0.00 | 0.00 | 0.00 | 57 | 1013.0 |
| 20260903025525 | 31 | 88 | 3.2 | 16.1 | 0.00 | 0.00 | 0.00 | 57 | 1012.9 |
| 20260903025003 | 31 | 92 | 3.2 | 16.1 | 0.00 | 0.00 | 0.00 | 57 | 1012.7 |
| 20260903024503 | 31 | 106 | 3.2 | 8.0 | 0.00 | 0.00 | 0.00 | 57 | 1012.7 |
| 20260903024024 | 31 | 111 | 3.2 | 9.7 | 0.00 | 0.00 | 0.00 | 56 | 1012.7 |
| 20260903023503 | 32 | 111 | 3.2 | 9.7 | 0.00 | 0.00 | 0.00 | 55 | 1012.7 |
| 20260903023003 | 32 | 106 | 3.2 | 8.0 | 0.00 | 0.00 | 0.00 | 55 | 1012.5 |
| 20260903022504 | 32 | 101 | 3.2 | 9.7 | 0.00 | 0.00 | 0.00 | 55 | 1012.5 |
| 20260903022024 | 32 | 102 | 3.2 | 9.7 | 0.00 | 0.00 | 0.00 | 55 | 1012.3 |
| 20260903021524 | 32 | 105 | 3.2 | 11.3 | 0.00 | 0.00 | 0.00 | 54 | 1012.3 |
| 20260903021024 | 32 | 105 | 3.2 | 11.3 | 0.00 | 0.00 | 0.00 | 54 | 1012.2 |
| 20260903020524 | 32 | 101 | 6.4 | 16.1 | 0.00 | 0.00 | 0.00 | 53 | 1012.2 |
| 20260903020003 | 32 | 95 | 6.4 | 16.1 | 0.00 | 0.00 | 0.00 | 53 | 1012.0 |
| 20260903015503 | 33 | 78 | 1.6 | 12.9 | 0.00 | 0.00 | 0.00 | 52 | 1012.1 |
| 20260903015003 | 33 | 58 | 1.6 | 6.4 | 0.00 | 0.00 | 0.00 | 51 | 1011.8 |
| 20260903014504 | 33 | 60 | 3.2 | 8.0 | 0.00 | 0.00 | 0.00 | 51 | 1011.7 |
| 20260903014003 | 33 | 62 | 3.2 | 8.0 | 0.00 | 0.00 | 0.00 | 51 | 1011.7 |
| 20260903013503 | 33 | 42 | 3.2 | 9.7 | 0.00 | 0.00 | 0.00 | 50 | 1011.6 |
| 20260903013003 | 33 | 37 | 3.2 | 9.7 | 0.00 | 0.00 | 0.00 | 50 | 1011.6 |
| 20260903012503 | 33 | 33 | 6.4 | 9.7 | 0.00 | 0.00 | 0.00 | 49 | 1011.6 |
| 20260903012003 | 34 | 33 | 3.2 | 16.1 | 0.00 | 0.00 | 0.00 | 48 | 1011.4 |
| 20260903011503 | 34 | 53 | 1.6 | 16.1 | 0.00 | 0.00 | 0.00 | 48 | 1011.6 |
| 20260903011024 | 34 | 178 | 0.0 | 1.6 | 0.00 | 0.00 | 0.00 | 50 | 1011.5 |
| 20260903010524 | 35 | 178 | 0.0 | 1.6 | 0.00 | 0.00 | 0.00 | 49 | 1011.4 |
| 20260903010003 | 35 | 0 | 0.0 | 0.0 | 0.00 | 0.00 | 0.00 | 49 | 1011.4 |
| 20260903005503 | 35 | 0 | 0.0 | 0.0 | 0.00 | 0.00 | 0.00 | 48 | 1011.5 |
| 20260903005003 | 35 | 178 | 0.0 | 1.6 | 0.00 | 0.00 | 0.00 | 48 | 1011.5 |
| 20260903004503 | 36 | 178 | 0.0 | 1.6 | 0.00 | 0.00 | 0.00 | 46 | 1011.5 |
| 20260903004003 | 36 | 178 | 0.0 | 1.6 | 0.00 | 0.00 | 0.00 | 45 | 1011.4 |
| 20260903003503 | 36 | 178 | 0.0 | 3.2 | 0.00 | 0.00 | 0.00 | 44 | 1011.4 |
| 20260903003004 | 36 | 178 | 0.0 | 3.2 | 0.00 | 0.00 | 0.00 | 44 | 1011.4 |
| 20260903002525 | 36 | 178 | 1.6 | 3.2 | 0.00 | 0.00 | 0.00 | 44 | 1011.4 |
| 20260903002004 | 36 | 178 | 1.6 | 3.2 | 0.00 | 0.00 | 0.00 | 43 | 1011.4 |
| 20260903001504 | 36 | 178 | 1.6 | 3.2 | 0.00 | 0.00 | 0.00 | 41 | 1011.4 |
| 20260903001004 | 36 | 178 | 0.0 | 1.6 | 0.00 | 0.00 | 0.00 | 41 | 1011.4 |
| 20260903000504 | 37 | 178 | 0.0 | 1.6 | 0.00 | 0.00 | 0.00 | 40 | 1011.5 |
| 20260903000004 | 37 | 178 | 1.6 | 3.2 | 0.00 | 0.00 | 0.00 | 40 | 1011.4 |
| 20260902235525 | 37 | 173 | 3.2 | 9.7 | 0.00 | 0.00 | 0.00 | 39 | 1011.5 |
| 20260902235004 | 37 | 166 | 3.2 | 9.7 | 0.00 | 0.00 | 0.00 | 39 | 1011.5 |
| 20260902234504 | 37 | 156 | 1.6 | 8.0 | 0.00 | 0.00 | 0.00 | 40 | 1011.4 |
| 20260902234004 | 37 | 158 | 1.6 | 8.0 | 0.00 | 0.00 | 0.00 | 41 | 1011.5 |
| 20260902233525 | 37 | 174 | 1.6 | 8.0 | 0.00 | 0.00 | 0.00 | 41 | 1011.5 |
| 20260902233004 | 37 | 184 | 1.6 | 3.2 | 0.00 | 0.00 | 0.00 | 40 | 1011.6 |
| 20260902232504 | 37 | 184 | 1.6 | 3.2 | 0.00 | 0.00 | 0.00 | 42 | 1011.6 |
| 20260902232004 | 37 | 184 | 1.6 | 6.4 | 0.00 | 0.00 | 0.00 | 42 | 1011.6 |
| 20260902231504 | 37 | 185 | 3.2 | 11.3 | 0.00 | 0.00 | 0.00 | 42 | 1011.6 |
| 20260902231004 | 37 | 170 | 6.4 | 11.3 | 0.00 | 0.00 | 0.00 | 41 | 1011.6 |
| 20260902230526 | 37 | 157 | 6.4 | 11.3 | 0.00 | 0.00 | 0.00 | 41 | 1011.6 |
| 20260902230004 | 36 | 145 | 3.2 | 9.7 | 0.00 | 0.00 | 0.00 | 42 | 1011.5 |
| 20260902225504 | 36 | 141 | 3.2 | 12.9 | 0.00 | 0.00 | 0.00 | 42 | 1011.5 |
| 20260902225004 | 36 | 164 | 1.6 | 12.9 | 0.00 | 0.00 | 0.00 | 43 | 1011.5 |
| 20260902224525 | 36 | 195 | 1.6 | 3.2 | 0.00 | 0.00 | 0.00 | 46 | 1011.6 |
| 20260902224004 | 36 | 195 | 1.6 | 6.4 | 0.00 | 0.00 | 0.00 | 46 | 1011.5 |
| 20260902223504 | 36 | 195 | 1.6 | 8.0 | 0.00 | 0.00 | 0.00 | 45 | 1011.5 |
| 20260902223004 | 36 | 201 | 3.2 | 8.0 | 0.00 | 0.00 | 0.00 | 45 | 1011.6 |
| 20260902222504 | 36 | 205 | 6.4 | 9.7 | 0.00 | 0.00 | 0.00 | 45 | 1011.7 |
| 20260902222004 | 36 | 210 | 3.2 | 9.7 | 0.00 | 0.00 | 0.00 | 45 | 1011.8 |
| 20260902221504 | 36 | 210 | 6.4 | 12.9 | 0.00 | 0.00 | 0.00 | 44 | 1011.7 |
| 20260902221004 | 36 | 209 | 6.4 | 12.9 | 0.00 | 0.00 | 0.00 | 43 | 1011.8 |
| 20260902220504 | 36 | 216 | 6.4 | 11.3 | 0.00 | 0.00 | 0.00 | 44 | 1011.9 |
| 20260902220004 | 37 | 209 | 8.0 | 12.9 | 0.00 | 0.00 | 0.00 | 43 | 1011.8 |
| 20260902215504 | 37 | 205 | 8.0 | 12.9 | 0.00 | 0.00 | 0.00 | 43 | 1011.8 |
| 20260902215004 | 37 | 207 | 8.0 | 17.7 | 0.00 | 0.00 | 0.00 | 43 | 1011.9 |
| 20260902214504 | 37 | 202 | 9.7 | 17.7 | 0.00 | 0.00 | 0.00 | 42 | 1011.9 |
| 20260902214004 | 37 | 199 | 9.7 | 19.3 | 0.00 | 0.00 | 0.00 | 42 | 1012.0 |
| 20260902213525 | 38 | 197 | 8.0 | 19.3 | 0.00 | 0.00 | 0.00 | 41 | 1011.9 |
| 20260902213004 | 38 | 202 | 3.2 | 12.9 | 0.00 | 0.00 | 0.00 | 41 | 1012.1 |
| 20260902212504 | 38 | 204 | 6.4 | 12.9 | 0.00 | 0.00 | 0.00 | 40 | 1012.1 |
| 20260902212004 | 38 | 197 | 8.0 | 16.1 | 0.00 | 0.00 | 0.00 | 40 | 1012.1 |
| 20260902211504 | 38 | 199 | 8.0 | 17.7 | 0.00 | 0.00 | 0.00 | 39 | 1012.1 |
| 20260902211004 | 38 | 195 | 6.4 | 17.7 | 0.00 | 0.00 | 0.00 | 40 | 1012.2 |
| 20260902210504 | 38 | 171 | 6.4 | 16.1 | 0.00 | 0.00 | 0.00 | 39 | 1012.3 |
| 20260902210004 | 38 | 130 | 6.4 | 11.3 | 0.00 | 0.00 | 0.00 | 40 | 1012.3 |
| 20260902205525 | 38 | 125 | 6.4 | 11.3 | 0.00 | 0.00 | 0.00 | 39 | 1012.4 |
| 20260902205025 | 38 | 145 | 6.4 | 16.1 | 0.00 | 0.00 | 0.00 | 39 | 1012.5 |
| 20260902204504 | 38 | 138 | 8.0 | 17.7 | 0.00 | 0.00 | 0.00 | 39 | 1012.5 |
| 20260902204004 | 38 | 122 | 8.0 | 17.7 | 0.00 | 0.00 | 0.00 | 41 | 1012.7 |
| 20260902203504 | 38 | 115 | 8.0 | 20.9 | 0.00 | 0.00 | 0.00 | 42 | 1012.6 |
| 20260902203004 | 37 | 107 | 9.7 | 20.9 | 0.00 | 0.00 | 0.00 | 43 | 1012.7 |
| 20260902202504 | 37 | 102 | 8.0 | 17.7 | 0.00 | 0.00 | 0.00 | 43 | 1012.8 |
| 20260902202025 | 37 | 109 | 6.4 | 16.1 | 0.00 | 0.00 | 0.00 | 44 | 1012.8 |
| 20260902201503 | 37 | 252 | 3.2 | 9.7 | 0.00 | 0.00 | 0.00 | 45 | 1013.0 |
| 20260902201004 | 37 | 214 | 3.2 | 9.7 | 0.00 | 0.00 | 0.00 | 44 | 1013.1 |
| 20260902200504 | 37 | 215 | 3.2 | 9.7 | 0.00 | 0.00 | 0.00 | 43 | 1013.1 |
| 20260902200004 | 37 | 256 | 6.4 | 12.9 | 0.00 | 0.00 | 0.00 | 43 | 1013.2 |
| 20260902195503 | 37 | 264 | 6.4 | 12.9 | 0.00 | 0.00 | 0.00 | 42 | 1013.3 |
| 20260902195003 | 37 | 273 | 3.2 | 12.9 | 0.00 | 0.00 | 0.00 | 41 | 1013.4 |
| 20260902194525 | 37 | 239 | 6.4 | 11.3 | 0.00 | 0.00 | 0.00 | 40 | 1013.4 |
| 20260902194004 | 38 | 215 | 3.2 | 11.3 | 0.00 | 0.00 | 0.00 | 39 | 1013.4 |
| 20260902193504 | 38 | 300 | 1.6 | 8.0 | 0.00 | 0.00 | 0.00 | 39 | 1013.5 |
| 20260902193024 | 38 | 290 | 3.2 | 8.0 | 0.00 | 0.00 | 0.00 | 39 | 1013.5 |
| 20260902192504 | 38 | 276 | 6.4 | 11.3 | 0.00 | 0.00 | 0.00 | 37 | 1013.6 |
| 20260902192025 | 39 | 238 | 6.4 | 12.9 | 0.00 | 0.00 | 0.00 | 37 | 1013.6 |
| 20260902191504 | 40 | 160 | 8.0 | 12.9 | 0.00 | 0.00 | 0.00 | 37 | 1013.7 |
| 20260902191004 | 40 | 155 | 6.4 | 12.9 | 0.00 | 0.00 | 0.00 | 35 | 1013.8 |
| 20260902190525 | 40 | 237 | 8.0 | 20.9 | 0.00 | 0.00 | 0.00 | 36 | 1013.9 |
| 20260902190025 | 40 | 308 | 8.0 | 20.9 | 0.00 | 0.00 | 0.00 | 38 | 1013.8 |
| 20260902185504 | 40 | 341 | 6.4 | 12.9 | 0.00 | 0.00 | 0.00 | 37 | 1013.9 |
| 20260902185004 | 40 | 49 | 6.4 | 12.9 | 0.00 | 0.00 | 0.00 | 38 | 1014.1 |
| 20260902184504 | 40 | 69 | 8.0 | 12.9 | 0.00 | 0.00 | 0.00 | 36 | 1014.2 |
| 20260902184003 | 40 | 157 | 8.0 | 17.7 | 0.00 | 0.00 | 0.00 | 38 | 1014.2 |
| 20260902183504 | 40 | 185 | 8.0 | 19.3 | 0.00 | 0.00 | 0.00 | 37 | 1014.3 |
| 20260902183004 | 39 | 212 | 9.7 | 19.3 | 0.00 | 0.00 | 0.00 | 38 | 1014.4 |
| 20260902182504 | 38 | 239 | 8.0 | 19.3 | 0.00 | 0.00 | 0.00 | 39 | 1014.5 |
| 20260902182004 | 38 | 237 | 6.4 | 19.3 | 0.00 | 0.00 | 0.00 | 40 | 1014.6 |
| 20260902181504 | 37 | 223 | 6.4 | 11.3 | 0.00 | 0.00 | 0.00 | 42 | 1014.7 |
| 20260902181004 | 37 | 187 | 6.4 | 11.3 | 0.00 | 0.00 | 0.00 | 43 | 1014.8 |
| 20260902180503 | 37 | 194 | 6.4 | 12.9 | 0.00 | 0.00 | 0.00 | 42 | 1014.9 |
| 20260902180006 | 37 | 169 | 6.4 | 16.1 | 0.00 | 0.00 | 0.00 | 40 | 1015.1 |
| 20260902175504 | 37 | 164 | 8.0 | 17.7 | 0.00 | 0.00 | 0.00 | 41 | 1015.1 |
| 20260902175004 | 37 | 176 | 8.0 | 17.7 | 0.00 | 0.00 | 0.00 | 42 | 1015.1 |
| 20260902174503 | 37 | 180 | 8.0 | 20.9 | 0.00 | 0.00 | 0.00 | 42 | 1015.3 |
| 20260902174003 | 37 | 186 | 6.4 | 20.9 | 0.00 | 0.00 | 0.00 | 43 | 1015.3 |
| 20260902173503 | 37 | 137 | 3.2 | 12.9 | 0.00 | 0.00 | 0.00 | 44 | 1015.4 |
| 20260902173003 | 36 | 168 | 6.4 | 12.9 | 0.00 | 0.00 | 0.00 | 45 | 1015.6 |
| 20260902172503 | 36 | 208 | 8.0 | 22.5 | 0.00 | 0.00 | 0.00 | 44 | 1015.5 |
| 20260902172004 | 36 | 197 | 9.7 | 22.5 | 0.00 | 0.00 | 0.00 | 46 | 1015.7 |
| 20260902171503 | 36 | 198 | 8.0 | 20.9 | 0.00 | 0.00 | 0.00 | 47 | 1015.8 |
| 20260902171004 | 35 | 205 | 8.0 | 22.5 | 0.00 | 0.00 | 0.00 | 47 | 1015.9 |
| 20260902170525 | 35 | 189 | 8.0 | 22.5 | 0.00 | 0.00 | 0.00 | 48 | 1016.0 |
| 20260902170004 | 35 | 175 | 9.7 | 22.5 | 0.00 | 0.00 | 0.00 | 50 | 1016.0 |
| 20260902165504 | 35 | 183 | 11.3 | 22.5 | 0.00 | 0.00 | 0.00 | 48 | 1016.1 |
| 20260902165004 | 35 | 205 | 8.0 | 20.9 | 0.00 | 0.00 | 0.00 | 49 | 1016.1 |
| 20260902164504 | 34 | 203 | 8.0 | 17.7 | 0.00 | 0.00 | 0.00 | 50 | 1016.2 |
| 20260902164003 | 34 | 200 | 8.0 | 19.3 | 0.00 | 0.00 | 0.00 | 50 | 1016.2 |
| 20260902163504 | 33 | 205 | 6.4 | 19.3 | 0.00 | 0.00 | 0.00 | 51 | 1016.2 |
| 20260902163004 | 33 | 202 | 6.4 | 12.9 | 0.00 | 0.00 | 0.00 | 54 | 1016.2 |
| 20260902162504 | 33 | 208 | 6.4 | 12.9 | 0.00 | 0.00 | 0.00 | 54 | 1016.3 |
| 20260902162004 | 33 | 206 | 6.4 | 17.7 | 0.00 | 0.00 | 0.00 | 54 | 1016.3 |
| 20260902161504 | 33 | 227 | 6.4 | 17.7 | 0.00 | 0.00 | 0.00 | 54 | 1016.3 |
| 20260902161024 | 32 | 237 | 6.4 | 17.7 | 0.00 | 0.00 | 0.00 | 57 | 1016.4 |
| 20260902160503 | 32 | 212 | 6.4 | 12.9 | 0.00 | 0.00 | 0.00 | 57 | 1016.4 |
| 20260902160005 | 32 | 209 | 6.4 | 12.9 | 0.00 | 0.00 | 0.00 | 60 | 1016.3 |
| 20260902155504 | 32 | 247 | 6.4 | 12.9 | 0.00 | 0.00 | 0.00 | 59 | 1016.3 |
| 20260902155004 | 32 | 229 | 8.0 | 20.9 | 0.00 | 0.00 | 0.00 | 60 | 1016.3 |
| 20260902154503 | 31 | 198 | 9.7 | 20.9 | 0.00 | 0.00 | 0.00 | 60 | 1016.3 |
| 20260902154003 | 31 | 196 | 9.7 | 20.9 | 0.00 | 0.00 | 0.00 | 62 | 1016.3 |
| 20260902153503 | 31 | 195 | 9.7 | 20.9 | 0.00 | 0.00 | 0.00 | 63 | 1016.2 |
| 20260902153004 | 31 | 197 | 9.7 | 22.5 | 0.00 | 0.00 | 0.00 | 64 | 1016.3 |
| 20260902152503 | 31 | 197 | 9.7 | 27.4 | 0.00 | 0.00 | 0.00 | 64 | 1016.3 |
| 20260902152003 | 30 | 196 | 11.3 | 27.4 | 0.00 | 0.00 | 0.00 | 66 | 1016.2 |
| 20260902151503 | 30 | 207 | 9.7 | 25.7 | 0.00 | 0.00 | 0.00 | 66 | 1016.2 |
| 20260902151003 | 30 | 219 | 6.4 | 16.1 | 0.00 | 0.00 | 0.00 | 70 | 1016.2 |
| 20260902150503 | 29 | 202 | 8.0 | 16.1 | 0.00 | 0.00 | 0.00 | 72 | 1016.2 |
| 20260902150003 | 29 | 187 | 9.7 | 19.3 | 0.00 | 0.00 | 0.00 | 73 | 1016.2 |
| 20260902145524 | 28 | 194 | 9.7 | 19.3 | 0.00 | 0.00 | 0.00 | 73 | 1016.2 |
| 20260902145024 | 28 | 205 | 8.0 | 17.7 | 0.00 | 0.00 | 0.00 | 75 | 1016.3 |
| 20260902144503 | 28 | 188 | 9.7 | 19.3 | 0.00 | 0.00 | 0.00 | 76 | 1016.4 |
| 20260902144003 | 28 | 187 | 9.7 | 19.3 | 0.00 | 0.00 | 0.00 | 77 | 1016.5 |
| 20260902143503 | 27 | 192 | 8.0 | 16.1 | 0.00 | 0.00 | 0.00 | 79 | 1016.6 |
| 20260902143003 | 27 | 185 | 8.0 | 16.1 | 0.00 | 0.00 | 0.00 | 81 | 1016.6 |
| 20260902142503 | 27 | 188 | 6.4 | 12.9 | 0.00 | 0.00 | 0.00 | 82 | 1016.6 |
| 20260902142003 | 26 | 197 | 6.4 | 12.9 | 0.00 | 0.00 | 0.00 | 83 | 1016.6 |